When you browse on this site, cookies collect data to enhance your experience and personalize the content and advertising you see.
Visit our Privacy Policy to learn more. By continuing to use the site, you agree to this use of cookies and data.
  • In Romania
  • List of Countries
  • For 7 days
  • Water Temperature
  • Weather Map
  • Weather Widgets
  • user-avatar
    Login

    Hourly Weather Konakry

    Today, 13 November, Wednesday

    Time Temperature Precipitation Wind Pressure Humidity
    00:00 +28°C° 0 mm 2 mps 753 mmHg 84%
    01:00 +28°C° 0 mm 1 mps 752 mmHg 85%
    02:00 +28°C° 0 mm 1 mps 752 mmHg 86%
    03:00 +28°C° 0.1 mm 1 mps 752 mmHg 86%
    04:00 +28°C° 0.1 mm 1 mps 752 mmHg 87%
    05:00 +27°C° 0.1 mm 1 mps 752 mmHg 87%
    06:00 +28°C° 0.2 mm 1 mps 753 mmHg 84%
    07:00 +29°C° 0.2 mm 1 mps 754 mmHg 81%
    08:00 +30°C° 0.2 mm 1 mps 754 mmHg 78%
    09:00 +31°C° 0.2 mm 1 mps 754 mmHg 74%
    10:00 +32°C° 0.2 mm 1 mps 754 mmHg 70%
    11:00 +33°C° 0 mm 1 mps 754 mmHg 63%
    12:00 +33°C° 0.9 mm 1 mps 753 mmHg 63%
    13:00 +33°C° 0.9 mm 1 mps 753 mmHg 63%
    14:00 +32°C° 0.9 mm 1 mps 752 mmHg 64%
    15:00 +32°C° 0.1 mm 1 mps 752 mmHg 65%
    16:00 +31°C° 0.1 mm 2 mps 752 mmHg 67%
    17:00 +31°C° 0.1 mm 2 mps 752 mmHg 69%
    18:00 +30°C° 0 mm 2 mps 753 mmHg 72%
    19:00 +30°C° 0 mm 2 mps 754 mmHg 75%
    20:00 +29°C° 0 mm 2 mps 754 mmHg 78%
    21:00 +29°C° 0 mm 2 mps 754 mmHg 79%
    22:00 +29°C° 0 mm 2 mps 754 mmHg 80%
    23:00 +28°C° 0 mm 2 mps 754 mmHg 81%

    Tomorrow, 14 November, Thursday

    Time Temperature Precipitation Wind Pressure Humidity
    00:00 +28°C° 0 mm 2 mps 754 mmHg 82%
    01:00 +28°C° 0 mm 2 mps 754 mmHg 83%
    02:00 +28°C° 0 mm 1 mps 753 mmHg 84%
    03:00 +28°C° 0.1 mm 1 mps 753 mmHg 84%
    04:00 +27°C° 0.1 mm 1 mps 753 mmHg 85%
    05:00 +27°C° 0.1 mm 1 mps 753 mmHg 85%
    06:00 +28°C° 0 mm 1 mps 754 mmHg 83%
    07:00 +29°C° 0 mm 1 mps 754 mmHg 80%
    08:00 +30°C° 0 mm 1 mps 755 mmHg 77%
    09:00 +31°C° 0 mm 1 mps 755 mmHg 73%
    10:00 +32°C° 0 mm 2 mps 754 mmHg 68%
    11:00 +34°C° 0 mm 2 mps 754 mmHg 64%
    12:00 +33°C° 0.4 mm 3 mps 753 mmHg 65%
    13:00 +33°C° 0.4 mm 3 mps 753 mmHg 66%
    14:00 +33°C° 0.4 mm 4 mps 752 mmHg 67%
    15:00 +32°C° 0.5 mm 4 mps 752 mmHg 71%
    16:00 +32°C° 0.5 mm 4 mps 752 mmHg 74%
    17:00 +30°C° 0.5 mm 4 mps 752 mmHg 77%
    18:00 +30°C° 0.2 mm 4 mps 753 mmHg 79%
    19:00 +29°C° 0.2 mm 3 mps 754 mmHg 82%
    20:00 +29°C° 0.2 mm 3 mps 754 mmHg 84%
    21:00 +29°C° 0.3 mm 3 mps 754 mmHg 84%
    22:00 +28°C° 0.3 mm 3 mps 754 mmHg 84%
    23:00 +28°C° 0.3 mm 3 mps 754 mmHg 84%

    Day after tomorrow, 15 November, Friday

    Time Temperature Precipitation Wind Pressure Humidity
    00:00 +28°C° 0.5 mm 3 mps 754 mmHg 85%
    01:00 +28°C° 0.5 mm 3 mps 754 mmHg 85%
    02:00 +28°C° 0.5 mm 3 mps 753 mmHg 86%
    03:00 +27°C° 0.1 mm 3 mps 753 mmHg 86%
    04:00 +27°C° 0.1 mm 3 mps 753 mmHg 87%
    05:00 +27°C° 0.1 mm 3 mps 753 mmHg 88%
    06:00 +28°C° 0 mm 3 mps 753 mmHg 84%
    07:00 +29°C° 0 mm 3 mps 754 mmHg 80%
    08:00 +29°C° 0 mm 4 mps 754 mmHg 77%
    09:00 +32°C° 0 mm 4 mps 754 mmHg 72%
    10:00 +33°C° 0 mm 4 mps 754 mmHg 67%
    11:00 +34°C° 0 mm 4 mps 754 mmHg 62%
    12:00 +34°C° 0 mm 4 mps 753 mmHg 61%
    13:00 +34°C° 0 mm 5 mps 752 mmHg 61%
    14:00 +34°C° 0 mm 5 mps 752 mmHg 60%
    15:00 +33°C° 0.8 mm 5 mps 752 mmHg 66%
    16:00 +32°C° 0.8 mm 5 mps 752 mmHg 72%
    17:00 +30°C° 0.8 mm 5 mps 752 mmHg 78%
    18:00 +29°C° 0.1 mm 4 mps 752 mmHg 80%
    19:00 +29°C° 0.1 mm 4 mps 753 mmHg 82%
    20:00 +29°C° 0.1 mm 4 mps 754 mmHg 85%
    21:00 +28°C° 0.3 mm 4 mps 753 mmHg 85%
    22:00 +28°C° 0.3 mm 4 mps 753 mmHg 86%
    23:00 +28°C° 0.3 mm 4 mps 753 mmHg 87%

    16 November, Saturday

    Time Temperature Precipitation Wind Pressure Humidity
    00:00 +28°C° 0.9 mm 4 mps 753 mmHg 86%
    01:00 +28°C° 0.9 mm 3 mps 753 mmHg 86%
    02:00 +27°C° 0.9 mm 3 mps 752 mmHg 86%
    03:00 +27°C° 0.3 mm 3 mps 752 mmHg 85%
    04:00 +27°C° 0.3 mm 3 mps 753 mmHg 85%
    05:00 +27°C° 0.3 mm 3 mps 753 mmHg 84%
    06:00 +28°C° 0.2 mm 3 mps 753 mmHg 82%
    07:00 +28°C° 0.2 mm 2 mps 754 mmHg 80%
    08:00 +29°C° 0.2 mm 2 mps 754 mmHg 77%
    09:00 +30°C° 0 mm 2 mps 754 mmHg 71%
    10:00 +32°C° 0 mm 2 mps 754 mmHg 64%
    11:00 +34°C° 0 mm 2 mps 753 mmHg 58%
    12:00 +34°C° 0 mm 2 mps 753 mmHg 59%
    13:00 +34°C° 0 mm 2 mps 752 mmHg 60%
    14:00 +32°C° 0 mm 2 mps 752 mmHg 61%
    15:00 +32°C° 0 mm 2 mps 752 mmHg 64%
    16:00 +31°C° 0 mm 2 mps 752 mmHg 66%
    17:00 +30°C° 0 mm 2 mps 752 mmHg 69%
    18:00 +30°C° 0.1 mm 2 mps 752 mmHg 71%
    19:00 +29°C° 0.1 mm 1 mps 753 mmHg 73%
    20:00 +29°C° 0.1 mm 1 mps 754 mmHg 75%
    21:00 +29°C° 0 mm 1 mps 754 mmHg 75%
    22:00 +29°C° 0 mm 1 mps 754 mmHg 76%
    23:00 +27°C° 0 mm 0 mps 753 mmHg 76%

    17 November, Sunday

    Time Temperature Precipitation Wind Pressure Humidity
    00:00 +28°C° 0 mm 1 mps 753 mmHg 76%
    01:00 +28°C° 0 mm 1 mps 753 mmHg 77%
    02:00 +28°C° 0 mm 1 mps 752 mmHg 78%
    03:00 +28°C° 0 mm 1 mps 752 mmHg 78%
    04:00 +28°C° 0 mm 1 mps 752 mmHg 79%
    05:00 +28°C° 0 mm 1 mps 752 mmHg 79%
    06:00 +28°C° 0 mm 1 mps 753 mmHg 76%
    07:00 +29°C° 0 mm 1 mps 753 mmHg 73%
    08:00 +28°C° 0 mm 0 mps 753 mmHg 70%
    09:00 +31°C° 0 mm 1 mps 753 mmHg 66%
    10:00 +32°C° 0 mm 1 mps 753 mmHg 63%
    11:00 +34°C° 0 mm 2 mps 753 mmHg 59%
    12:00 +34°C° 0.1 mm 2 mps 753 mmHg 60%
    13:00 +33°C° 0.1 mm 3 mps 752 mmHg 62%
    14:00 +33°C° 0.1 mm 3 mps 751 mmHg 63%
    15:00 +31°C° 0 mm 3 mps 752 mmHg 66%
    16:00 +31°C° 0 mm 3 mps 752 mmHg 69%
    17:00 +30°C° 0 mm 3 mps 752 mmHg 72%
    18:00 +30°C° 0 mm 3 mps 752 mmHg 74%
    19:00 +29°C° 0 mm 3 mps 753 mmHg 77%
    20:00 +29°C° 0 mm 2 mps 754 mmHg 80%
    21:00 +29°C° 0 mm 2 mps 754 mmHg 80%
    22:00 +28°C° 0 mm 2 mps 754 mmHg 81%
    23:00 +28°C° 0 mm 2 mps 754 mmHg 82%

    18 November, Monday

    Time Temperature Precipitation Wind Pressure Humidity
    00:00 +28°C° 0 mm 2 mps 753 mmHg 82%
    01:00 +28°C° 0 mm 1 mps 753 mmHg 83%
    02:00 +28°C° 0 mm 1 mps 753 mmHg 83%
    03:00 +27°C° 0 mm 1 mps 753 mmHg 84%
    04:00 +27°C° 0 mm 1 mps 753 mmHg 84%
    05:00 +27°C° 0 mm 1 mps 753 mmHg 84%
    06:00 +28°C° 0 mm 1 mps 753 mmHg 81%
    07:00 +29°C° 0 mm 1 mps 753 mmHg 77%
    08:00 +30°C° 0 mm 1 mps 754 mmHg 74%
    09:00 +31°C° 0 mm 1 mps 754 mmHg 69%
    10:00 +32°C° 0 mm 2 mps 753 mmHg 65%
    11:00 +34°C° 0 mm 2 mps 753 mmHg 61%
    12:00 +34°C° 0 mm 2 mps 753 mmHg 61%
    13:00 +34°C° 0 mm 3 mps 752 mmHg 61%
    14:00 +34°C° 0 mm 4 mps 752 mmHg 62%
    15:00 +33°C° 0.1 mm 4 mps 752 mmHg 66%
    16:00 +32°C° 0.1 mm 4 mps 752 mmHg 71%
    17:00 +30°C° 0.1 mm 4 mps 752 mmHg 75%
    18:00 +30°C° 0 mm 4 mps 753 mmHg 77%
    19:00 +29°C° 0 mm 3 mps 753 mmHg 79%
    20:00 +29°C° 0 mm 3 mps 754 mmHg 81%
    21:00 +29°C° 0 mm 2 mps 754 mmHg 82%
    22:00 +29°C° 0 mm 2 mps 754 mmHg 82%
    23:00 +28°C° 0 mm 2 mps 754 mmHg 83%
    Show more